| time (UTC) | temp F | wind direction | speed MPH | gust MPH | rain 1hr in | rain 24hr in | rain mn in | humidity % | barometer mb |
| 20260505052655 | 60 | 232 | 3.0 | 6.0 | 0.00 | 0.00 | 0.00 | 42 | 1031.2 |
| 20260505051153 | 60 | 248 | 3.0 | 7.0 | 0.00 | 0.00 | 0.00 | 42 | 1031.0 |
| 20260505041146 | 63 | 294 | 6.0 | 7.0 | 0.00 | 0.00 | 0.00 | 43 | 1030.5 |
| 20260505035642 | 64 | 292 | 4.0 | 9.0 | 0.00 | 0.00 | 0.00 | 43 | 1030.4 |
| 20260505034138 | 65 | 216 | 2.0 | 4.0 | 0.00 | 0.00 | 0.00 | 44 | 1029.9 |
| 20260505032636 | 66 | 283 | 3.0 | 8.0 | 0.00 | 0.00 | 0.00 | 42 | 1029.3 |
| 20260505031131 | 67 | 250 | 6.0 | 8.0 | 0.00 | 0.00 | 0.00 | 42 | 1029.4 |
| 20260505025626 | 68 | 237 | 6.0 | 6.0 | 0.00 | 0.00 | 0.00 | 47 | 1029.5 |
| 20260505024125 | 68 | 253 | 2.0 | 6.0 | 0.00 | 0.00 | 0.00 | 51 | 1029.2 |
| 20260505022622 | 67 | 266 | 3.0 | 7.0 | 0.00 | 0.00 | 0.00 | 62 | 1028.8 |
| 20260505021118 | 67 | 257 | 2.0 | 5.0 | 0.00 | 0.00 | 0.00 | 67 | 1028.6 |
| 20260505015613 | 67 | 163 | 2.0 | 5.0 | 0.00 | 0.00 | 0.00 | 67 | 1028.0 |
| 20260505014110 | 67 | 195 | 2.0 | 6.0 | 0.00 | 0.00 | 0.00 | 65 | 1027.4 |
| 20260505012608 | 68 | 159 | 0.0 | 8.0 | 0.00 | 0.00 | 0.00 | 61 | 1027.2 |
| 20260505011104 | 69 | 252 | 3.0 | 7.0 | 0.00 | 0.00 | 0.00 | 56 | 1027.2 |
| 20260505005603 | 71 | 173 | 0.0 | 4.0 | 0.00 | 0.00 | 0.00 | 50 | 1026.8 |
| 20260505004100 | 72 | 241 | 3.0 | 6.0 | 0.00 | 0.00 | 0.00 | 48 | 1026.2 |
| 20260505002555 | 72 | 225 | 3.0 | 5.0 | 0.00 | 0.00 | 0.00 | 46 | 1025.9 |
| 20260505001054 | 73 | 187 | 0.0 | 8.0 | 0.00 | 0.00 | 0.00 | 44 | 1026.0 |
| 20260504235552 | 73 | 234 | 5.0 | 7.0 | 0.00 | 0.00 | 0.00 | 43 | 1025.7 |
| 20260504234048 | 75 | 219 | 7.0 | 12.0 | 0.00 | 0.00 | 0.00 | 42 | 1025.9 |
| 20260504232543 | 75 | 226 | 4.0 | 9.0 | 0.00 | 0.00 | 0.00 | 42 | 1026.1 |
| 20260504231039 | 74 | 242 | 6.0 | 10.0 | 0.00 | 0.00 | 0.00 | 44 | 1026.3 |
| 20260504225537 | 74 | 306 | 1.0 | 10.0 | 0.00 | 0.00 | 0.00 | 44 | 1026.5 |
| 20260504224034 | 78 | 138 | 3.0 | 14.0 | 0.00 | 0.00 | 0.00 | 37 | 1026.6 |
| 20260504222529 | 79 | 203 | 12.0 | 14.0 | 0.00 | 0.00 | 0.00 | 35 | 1026.4 |
| 20260504221026 | 79 | 173 | 1.0 | 17.0 | 0.00 | 0.00 | 0.00 | 34 | 1026.6 |
| 20260504215522 | 80 | 236 | 4.0 | 10.0 | 0.00 | 0.00 | 0.00 | 34 | 1026.6 |
| 20260504214018 | 79 | 199 | 4.0 | 12.0 | 0.00 | 0.00 | 0.00 | 33 | 1026.7 |
| 20260504212513 | 79 | 187 | 0.0 | 11.0 | 0.00 | 0.00 | 0.00 | 32 | 1026.8 |
| 20260504211011 | 79 | 248 | 5.0 | 14.0 | 0.00 | 0.00 | 0.00 | 31 | 1027.0 |
| 20260504205508 | 80 | 188 | 10.0 | 13.0 | 0.00 | 0.00 | 0.00 | 30 | 1027.1 |
| 20260504204008 | 79 | 268 | 6.0 | 10.0 | 0.00 | 0.00 | 0.00 | 30 | 1027.4 |
| 20260504202504 | 79 | 203 | 5.0 | 15.0 | 0.00 | 0.00 | 0.00 | 30 | 1027.3 |
| 20260504201002 | 78 | 207 | 4.0 | 12.0 | 0.00 | 0.00 | 0.00 | 31 | 1027.6 |
| 20260504195456 | 78 | 195 | 5.0 | 9.0 | 0.00 | 0.00 | 0.00 | 31 | 1027.9 |
| 20260504193957 | 78 | 233 | 4.0 | 12.0 | 0.00 | 0.00 | 0.00 | 31 | 1028.2 |
| 20260504192456 | 78 | 259 | 7.0 | 13.0 | 0.00 | 0.00 | 0.00 | 29 | 1028.3 |
| 20260504190953 | 77 | 208 | 3.0 | 14.0 | 0.00 | 0.00 | 0.00 | 32 | 1028.3 |
| 20260504185449 | 77 | 251 | 5.0 | 10.0 | 0.00 | 0.00 | 0.00 | 32 | 1028.1 |
| 20260504183948 | 77 | 281 | 3.0 | 10.0 | 0.00 | 0.00 | 0.00 | 33 | 1028.4 |
| 20260504182446 | 76 | 264 | 5.0 | 11.0 | 0.00 | 0.00 | 0.00 | 33 | 1028.5 |
| 20260504180945 | 76 | 274 | 6.0 | 14.0 | 0.00 | 0.00 | 0.00 | 33 | 1028.6 |
| 20260504175443 | 75 | 174 | 9.0 | 11.0 | 0.00 | 0.00 | 0.00 | 33 | 1028.6 |
| 20260504173941 | 75 | 175 | 7.0 | 11.0 | 0.00 | 0.00 | 0.00 | 34 | 1028.8 |
| 20260504172437 | 74 | 270 | 3.0 | 8.0 | 0.00 | 0.00 | 0.00 | 36 | 1029.3 |
| 20260504170934 | 74 | 252 | 5.0 | 13.0 | 0.00 | 0.00 | 0.00 | 34 | 1029.6 |
| 20260504150906 | 69 | 243 | 1.0 | 10.0 | 0.00 | 0.00 | 0.00 | 45 | 1031.0 |
| 20260504140852 | 66 | 170 | 4.0 | 6.0 | 0.00 | 0.00 | 0.00 | 47 | 1031.5 |
| 20260504080747 | 49 | 173 | 0.0 | 2.0 | 0.00 | 0.00 | 0.00 | 83 | 1032.5 |